Location: Catenanuova
(37.5690°N, 14.6870°E)
Time: 04:20:37
(UTC+02:00)

ISS - Visible Passes

Search period start: 17 April 2026 00:00
Search period end: 27 April 2026 00:00
Orbit: 416 x 425 km, 51.6° (Epoch: 16 April)

Date Brightness Start Highest point End Pass type
(mag) Time Alt. Az. Time Alt. Az. Time Alt. Az.
17 Apr -1.1 04:36:50 11° SSE 04:38:00 12° SE 04:39:30 10° E visible
18 Apr -3.7 05:24:43 17° SW 05:27:11 76° SE 05:30:34 10° NE visible
19 Apr -2.9 04:39:31 37° SSE 04:40:00 40° SE 04:43:11 10° ENE visible
20 Apr -1.2 03:54:13 17° E 03:54:13 17° E 03:55:33 10° ENE visible
20 Apr -2.7 05:27:11 15° W 05:29:32 35° NNW 05:32:40 10° NE visible
21 Apr -3.6 04:41:48 53° WNW 04:42:12 58° NW 04:45:32 10° NE visible
22 Apr -1.9 03:56:20 32° ENE 03:56:20 32° ENE 03:58:17 10° NE visible
22 Apr -1.5 05:29:50 10° WNW 05:32:05 17° NNW 05:34:20 10° NNE visible
23 Apr -0.3 03:10:48 10° ENE 03:10:48 10° ENE 03:10:52 10° ENE visible
23 Apr -2.0 04:43:46 21° NW 04:44:36 23° NNW 04:47:22 10° NNE visible
24 Apr -1.9 03:58:11 27° N 03:58:11 27° N 04:00:17 10° NE visible
25 Apr -0.5 03:12:33 14° NE 03:12:33 14° NE 03:13:08 10° NE visible
25 Apr -1.1 04:45:42 10° NW 04:47:13 12° NNW 04:48:44 10° N visible
26 Apr -1.3 03:59:49 16° NNW 03:59:49 16° NNW 04:01:53 10° NNE visible
